Regional Weather Roundup
Issued by NWS

Home | Current Version | Previous Version | Text Only | Print | Product List | Glossary Off
Versions: 1 2 3 4 5 6 7 8 9 10 11 12 13 14 15 16 17 18 19 20 21 22 23 24 25 26 27 28 29 30 31 32 33 34 35 36 37 38 39 40 41 42 43 44 45 46 47 48 49 50

634
ASUS43 KOAX 250502
RWRNE

WEATHER ROUNDUP FOR NEBRASKA
NATIONAL WEATHER SERVICE OMAHA NE
1200 AM CDT MON SEP 25 2017

NOTES: SATELLITE DATA IS BEING USED TO AUGMENT CLOUD COVER ABOVE
       12000 FEET.
       "FAIR" INDICATES FEW OR NO CLOUDS BELOW 12,000 FEET WITH NO
       SIGNIFICANT WEATHER AND/OR OBSTRUCTIONS TO VISIBILITY.


NEZ001>004-019>022-054>056-250600-
NEBRASKA PANHANDLE

CITY           SKY/WX    TMP DP  RH WIND       PRES   REMARKS
SCOTTSBLUFF    CLOUDY    47  43  86 NE15      30.06F
ALLIANCE       LGT RAIN  45  43  93 NE13      30.06S
CHADRON        CLOUDY    47  43  86 NE9       30.09F
GORDON         LGT RAIN  46  43  91 NE6       30.09S
KIMBALL        DRIZZLE   46  46 100 NE8       30.07R
SIDNEY         LGT RAIN  46  45  96 NE13      30.04S FOG
$$

NEZ057>060-069>072-079>082-250600-
SOUTHWEST NEBRASKA

CITY           SKY/WX    TMP DP  RH WIND       PRES   REMARKS
NORTH PLATTE   CLOUDY    52  50  93 NE14      30.01F
IMPERIAL       CLOUDY    51  48  89 NE17G24   29.97F
LEXINGTON      LGT RAIN  54  52  92 N10       29.99R
MCCOOK         HVY RAIN  54  54 100 NE9       29.98R FOG
OGALLALA       CLOUDY    51  48  90 NE16G22   30.00F
$$

NEZ005>010-023>029-035>040-094-250600-
NORTH CENTRAL NEBRASKA

CITY           SKY/WX    TMP DP  RH WIND       PRES   REMARKS
VALENTINE      LGT RAIN  51  47  86 N8        30.07F
AINSWORTH      DRIZZLE   50  49  98 N10       30.06F
BROKEN BOW     LGT RAIN  52  52 100 NE13      30.01S
O`NEILL        RAIN      52  52 100 N8G18     30.04F
ORD            LGT RAIN  53  50  89 N7        30.03R
THEDFORD       CLOUDY    50  48  93 N8        30.05S
$$

NEZ041-046>049-061>064-073>077-083>087-250600-
SOUTH CENTRAL NEBRASKA

CITY           SKY/WX    TMP DP  RH WIND       PRES   REMARKS
GRAND ISLAND   CLOUDY    56  56 100 N16G22    30.00R
AURORA         CLOUDY    56  56  97 NE14      29.98R
HASTINGS       CLOUDY    57  56  96 N13       29.98S
HEBRON         HVY RAIN  65  63  94 NE6       29.91F
HOLDREGE       TSTM      54  53  95 NE18      29.98R
KEARNEY        HVY RAIN  54  53  97 N18       29.98F
YORK           CLOUDY    59  59 100 NE12      29.95F
$$

NEZ011>018-030>034-042>045-250600-
NORTHEAST NEBRASKA

CITY           SKY/WX    TMP DP  RH WIND       PRES   REMARKS
NORFOLK        LGT RAIN  55  54  96 NW10      29.99R
ALBION         RAIN      55  53  93 N8        30.01F
BLAIR          CLOUDY    62  61  95 N3        29.98R
COLUMBUS       LGT RAIN  57  56  96 NE5       29.98F
FREMONT        LGT RAIN  61  59  96 N5        29.97F
TEKAMAH        RAIN      61  59  93 NW6       29.97R FOG
WAYNE          CLOUDY    56  53  91 N8        29.97F
$$

NEZ050>053-065>068-078-088>093-250600-
SOUTHEAST NEBRASKA

CITY           SKY/WX    TMP DP  RH WIND       PRES   REMARKS
LINCOLN        TSTM      63  62  97 NE7       29.96S FOG
OMAHA EPPLEY   CLOUDY    65  60  84 W14       29.96R
BEATRICE       RAIN      67  66  96 E12       29.93S
FALLS CITY     PTCLDY    73  65  75 SE6       29.89F
NEBRASKA CITY  CLOUDY    69  67  94 N7        29.93S
PLATTSMOUTH    CLOUDY    66  64  90 NW10      29.94S
$$

NEZ044-045-051>053-067-250600-
OMAHA AREA

CITY           SKY/WX    TMP DP  RH WIND       PRES   REMARKS
OMAHA EPPLEY   CLOUDY    65  60  84 W14       29.96R
BLAIR          CLOUDY    62  61  95 N3        29.98R
FREMONT        LGT RAIN  61  59  96 N5        29.97F
MILLARD        CLOUDY    65  63  92 N6        29.95S
OFFUTT AFB     CLOUDY    66  61  85 NW6       29.94R
PLATTSMOUTH    CLOUDY    66  64  90 NW10      29.94S
WAHOO          RAIN      61  61  98 N7        29.96F
$$




USA.gov is the U.S. government's official web portal to all federal, state and local government web resources and services.